CDT,Max TemperatureF,Mean TemperatureF,Min TemperatureF,Max Dew PointF,MeanDew PointF,Min DewpointF,Max Humidity, Mean Humidity, Min Humidity, Max Sea Level PressureIn, Mean Sea Level PressureIn, Min Sea Level PressureIn, Max VisibilityMiles, Mean VisibilityMiles, Min VisibilityMiles, Max Wind SpeedMPH, Mean Wind SpeedMPH, Max Gust SpeedMPH,PrecipitationIn, CloudCover, Events, WindDirDegrees
2012-10-1,76,64,54,59,51,46,91,69,38,29.97,29.92,29.88,10,10,10,25,11,36,0.00,0,Rain,350
2012-10-2,73,61,49,47,40,34,83,49,24,30.02,29.96,29.90,10,7,0,15,9,,0.00,0,Rain,36
2012-10-3,81,64,49,51,43,38,69,47,26,29.96,29.91,29.84,10,10,9,20,9,25,0.00,0,,162
2012-10-4,64,58,52,52,43,38,72,60,49,30.25,30.17,29.94,10,10,7,23,12,29,0.00,4,,30
2012-10-5,57,50,39,40,32,22,71,51,27,30.33,30.26,30.22,10,9,6,21,13,31,0.00,4,Rain,39
2012-10-6,48,44,41,34,32,26,73,62,42,30.40,30.35,30.30,10,10,10,22,9,25,0.00,4,Rain,20
2012-10-7,55,44,33,34,29,24,95,59,31,30.38,30.30,30.19,10,10,10,12,7,,0.00,0,,309
2012-10-8,67,50,33,35,32,28,85,53,25,30.19,30.08,29.96,10,10,10,21,12,26,0.00,0,,188
2012-10-9,69,56,45,48,42,31,81,60,44,30.17,29.95,29.88,10,10,10,21,11,21,0.00,1,,133
2012-10-10,67,52,39,33,28,24,75,43,20,30.31,30.20,30.12,10,10,10,12,6,,0.00,0,,71
2012-10-11,78,66,54,67,48,32,92,57,42,30.11,30.04,29.96,10,10,10,22,10,28,0.00,5,,150
2012-10-12,68,60,51,68,58,46,100,98,59,30.24,30.12,30.01,10,6,0,18,10,26,0.53,8,Fog-Rain-Thunderstorm,86
2012-10-13,73,67,60,73,68,51,100,99,71,29.98,29.78,29.58,10,7,0,31,15,53,1.43,7,Fog-Rain-Thunderstorm,174
2012-10-14,73,64,55,53,46,41,87,61,31,30.06,29.97,29.63,10,7,1,18,9,28,0.00,0,,275
2012-10-15,84,67,50,49,44,42,78,61,23,30.04,30.00,29.81,10,3,1,16,4,,0.00,0,,223
2012-10-16,80,68,56,56,52,49,78,59,41,29.80,29.65,29.50,10,10,10,18,13,25,0.00,0,,182
2012-10-17,70,62,52,60,44,21,100,60,20,29.81,29.58,29.39,10,10,10,24,13,33,0.00,1,,342
2012-10-18,64,57,50,23,19,15,34,23,15,29.88,29.83,29.78,10,8,4,28,13,37,0.00,2,,302
2012-10-19,65,56,46,30,24,17,45,31,20,29.92,29.86,29.83,10,10,10,21,13,26,0.00,0,,314
2012-10-20,81,64,47,51,38,28,64,42,26,29.84,29.75,29.67,10,10,10,12,6,,0.00,0,,166
2012-10-21,87,74,60,70,64,52,100,82,44,29.72,29.69,29.62,10,10,7,21,11,28,0.00,3,,144
2012-10-22,75,70,64,68,59,50,91,69,47,29.82,29.77,29.68,10,10,10,21,15,30,0.00,1,,184
2012-10-23,87,76,64,69,65,53,100,79,30,29.80,29.74,29.64,10,10,10,28,19,34,0.00,4,,176
2012-10-24,82,74,66,69,67,65,100,85,61,29.78,29.73,29.65,10,10,10,28,19,33,0.00,5,,168
2012-10-25,70,54,37,65,43,31,100,83,54,30.34,29.93,29.58,10,10,7,30,22,41,0.01,6,Rain,356
2012-10-26,47,40,33,30,26,24,82,63,42,30.55,30.44,30.35,10,10,9,22,16,28,0.00,2,,18
2012-10-27,49,36,25,28,25,23,89,61,38,30.45,30.35,30.25,10,10,10,8,5,,0.00,1,,54
2012-10-28,56,42,30,29,26,23,83,53,32,30.35,30.28,30.22,10,10,4,10,6,,0.00,2,,133
2012-10-29,65,50,37,31,28,25,69,45,25,30.27,30.19,30.06,10,9,2,20,10,25,0.00,2,,158
2012-10-30,72,59,45,38,34,30,70,46,27,30.06,29.97,29.89,10,10,5,12,8,,0.00,2,,135
2012-10-31,67,52,38,36,34,31,83,54,30,30.11,30.04,29.99,10,9,2,8,5,,0.00,0,,69